Regional Weather Roundup
Issued by NWS Newport/Morehead, NC

Current Version | Previous Version | Graphics & Text | Print | Product List | Glossary On
Versions: 1 2 3 4 5 6 7 8 9 10 11 12 13 14 15 16 17 18 19 20 21 22 23 24 25 26 27 28 29 30 31 32 33 34 35 36 37 38 39 40 41 42 43 44 45 46 47 48 49 50
000 ASUS42 KMHX 180125 RWRMHX WEATHER ROUNDUP FOR EASTERN NORTH CAROLINA NATIONAL WEATHER SERVICE NEWPORT/MOREHEAD CITY NC 800 PM EST TUE JAN 17 2017 NOTE: "FAIR" INDICATES FEW OR NO CLOUDS BELOW 12,000 FEET WITH NO SIGNIFICANT WEATHER AND/OR OBSTRUCTIONS TO VISIBILITY NCZ015>017-031-032-045>047-102-103-180200- NORTH COAST CITY SKY/WX TMP DP RH WIND PRES REMARKS EDENTON CLOUDY 60 56 89 SW5 30.09S ELIZABETH CITY MOCLDY 57 54 89 S8 30.08F KITTY HAWK NOT AVBL MANTEO CLOUDY 53 53 99 SW12 30.09F $$ NCZ045>047-081-094-103-104-180200- CENTRAL COAST CITY SKY/WX TMP DP RH WIND PRES REMARKS FRISCO LGT RAIN 60 57 89 SW6 30.11F FOG $$ NCZ095-097-098-100-101-180200- SOUTHERN COAST CITY SKY/WX TMP DP RH WIND PRES REMARKS BEAUFORT CLOUDY 62 60 93 SW10 30.15S CEDAR ISLAND NOT AVBL JACKSONVILLE CLOUDY 58 57 97 S3 30.14S PINEY ISLAND CLOUDY N/A N/A N/A SW9 30.13F WILMINGTON PTCLDY 61 57 87 S9 30.16R $$ NCZ011>013-027>030-043-044-078>080-089-090>093-098-180200- COASTAL PLAIN CITY SKY/WX TMP DP RH WIND PRES REMARKS AHOSKIE LGT RAIN 57 55 90 SW6 30.07S CLINTON PTCLDY 60 57 91 S3 30.13F ELIZABETHTOWN CLOUDY 58 57 96 S3 30.15S GOLDSBORO CLOUDY 60 60 97 S7 30.10S GREENVILLE DRIZZLE 61 57 88 SW10 30.11F HAVELOCK CLOUDY 60 58 92 SW8 30.15S KENANSVILLE MOCLDY 57 54 88 CALM 30.13S KINSTON CLOUDY 61 55 82 S8 30.12S NEW BERN CLOUDY 62 56 80 SW8 30.15R RICHLANDS MOCLDY 58 56 93 S6 30.14S ROCKY MOUNT MOCLDY 59 56 89 S10 30.10R WASHINGTON CLOUDY 61 55 79 SW9 30.11S WHITEVILLE MOCLDY 58 55 89 S3 30.16R $$ AMZ130-135-150-152-154-156-158-170-250-252-270-ANZ085-086-088-633-658-670-180200- MARINE OBSERVATIONS STATION/POSITION TIME TEMP WIND PRES WAVE SWELL AIR SEA DIR/SP/G HT/PER HT/PER (UTC) (F) (DEG/KT/KT) (MB) (FT/S) (FT/S) CHESAPEAKE LIGHT NOT AVBL 64 E VA BEACH 0050 58 56 210/ 14/ 17 1017.7 3/ 4 2/ 8 DUCK 0100 57 44 210/ 9/ 11 1018.2 2 E DUCK 0100 45 N/A 2/ 8 OREGON INLET 0100 53 48 210/ 11/ 12 1019.0 13E OREGON INLT NOT AVBL HATTERAS CG 0100 63 53 230/ 8/ 11 1019.4 DIAMOND BUOY 0050 70 73 230/ 17/ 21 1019.6 3/ 4 2/ 9 CAPE LOOKOUT 0000 64 210/ 9/ 12 1020.7 BEAUFORT LAB 0100 60 50 230/ 3/ 6 1019.8 30 SE NEW RVR IN 0108 62 63 230/ 10/ 14 1021.4 30 SE NEW RVR IN 0113 63 N/A 3/10 27 SE WRIGHTSVLE 0108 68 69 200/ 12/ 16 1021.0 5 SE WRIGHTSVLE 0108 57 220/ 6/ 10 1021.2 225 S CAPE HAT 0050 72 72 210/ 12/ 12 1024.1 3/ 8 2/ 8 41 SE CHARLESTON 0050 70 71 220/ 12/ 14 1022.5 2/ 8 2/ 8 $$

USA.gov is the U.S. government's official web portal to all federal, state and local government web resources and services.